Betekom 2018 - Herfstjogging

Saturday, October 6, 2018 15:29 (GMT+2) - Final results

Race info
Sport: Running - road
Location: Begijnendijk, Belgium
Start type: Mass start
Racers: 67
Timed on: samsung SM-G361F
Timed with: Webscorer PRO 3.1
Updated: Saturday, October 13, 2018 09:27 (GMT+2)
Organized by: Regio Oost-Brabant Atletiek
Race website: www.roba-atletiek.be

Contact organizer

Use this form to send an email to the organizer.

Your name
Your email address
Confirm email address
Message to organizer
Send

Place Bib Racer name Affiliation Category Gender Finish time
1235DREESEN LIAMTREMELO KADM 10:12.7--100%37.87%37.93%
2268WILLEMS STEVETIELT-WINGE MAS M35M 10:26.4+0:13.7+2.24%97.81%36.48%36.54%
3254WUYTS LODEWERCHTER SCHOLM 10:37.2+0:24.5+4.00%96.16%35.39%35.45%
4257DE VRIES JEFFTIELT-WINGE SENM 10:55.2+0:42.5+6.94%93.51%33.56%33.62%
5224GEERAERTS GERTBAAL SENM 11:03.5+0:50.8+8.29%92.34%32.72%32.78%
6216DANIELS KARELBEGIJNENDIJK KADM 11:34.3+1:21.6+13.32%88.25%29.59%29.66%
7238VOS JORENBAAL SENM 11:37.0+1:24.3+13.76%87.91%29.32%29.39%
8242HUYSMANS MARCAARSCHOT MAS M60M 12:12.5+1:59.8+19.55%83.65%25.72%25.79%
9211GEERTS MERELBETEKOM SCHOLF 12:28.8+2:16.1+22.21%81.82%24.07%24.14%
10250DECOSTER JELLEBOUTERSEM MINM 12:42.4+2:29.7+24.43%80.36%22.69%22.76%
11267VAN CAMPENHOUT DAVESCHRIEK MAS M35M 12:46.3+2:33.6+25.07%79.96%22.29%22.37%
12240COOPMANS DITTEHERSELT SCHOLF 12:54.5+2:41.8+26.41%79.11%21.46%21.54%
13230DE COCQ ROGERHEIST-O/D-BERG - BERGLOPERS MAS M65M 13:31.6+3:18.9+32.46%75.49%17.70%17.78%
14237VERBIST CHIELBEGIJNENDIJK KADM 13:39.4+3:26.7+33.74%74.77%16.91%16.99%
15221DE LANGE GEERTBAAL MAS M45M 13:45.8+3:33.1+34.78%74.19%16.26%16.34%
16246WILMAERS KELLYTIELT-WINGE SENF 13:52.5+3:39.8+35.87%73.60%15.58%15.66%
17247MERTENS JOELBINKOM MAS M55M 13:59.5+3:46.8+37.02%72.98%14.87%14.95%
18215VAN DE VLOED WIMRAMSEL PUPM 14:39.6+4:26.9+43.56%69.66%10.80%10.89%
19218MILIS ALESSIABEGIJNENDIJK PUPF 14:40.6+4:27.9+43.72%69.58%10.70%10.79%
20236VAN DER HOEVEN HANNESCHRIEK MINF 14:41.1+4:28.4+43.81%69.54%10.65%10.74%
21217MILIS NICOAARSCHOT MAS M40M 14:41.2+4:28.5+43.82%69.53%10.64%10.73%
22239COOPMANS METTEHERSELT KADF 14:41.8+4:29.1+43.92%69.48%10.58%10.67%
23220VUERINCKX FRERAMSEL PUPM 14:41.9+4:29.2+43.94%69.47%10.57%10.66%
24205SUMMA MATTISBETEKOM PUPM 15:13.6+5:00.9+49.11%67.06%7.36%7.45%
25260VLEMINX JANRAMSEL MAS M55M 15:13.7+5:01.0+49.13%67.06%7.35%7.44%
26258VAN DER MOTTE ANNELIESTIELT-WINGE SENF 15:52.5+5:39.8+55.46%64.33%3.41%3.51%
27208VERSCHOREN GUSTTREMELO BENM 15:54.6+5:41.9+55.80%64.18%3.20%3.29%
28206SUMMA SANDROBETEKOM MINM 15:55.6+5:42.9+55.97%64.12%3.10%3.19%
29225DE LANGE FLORIANBAAL PUPM 15:58.3+5:45.6+56.41%63.94%2.82%2.92%
30245JANSSENS PAULIENBETEKOM MINF 16:00.5+5:47.8+56.77%63.79%2.60%2.69%
31229VERHAEGEN LAURABETEKOM SCHOLF 16:19.2+6:06.5+59.82%62.57%0.70%0.80%
32204WOLPUT KATOBETEKOM KADF 16:21.1+6:08.4+60.13%62.45%0.51%0.61%
33214DE ROOVERE KATHLEENBAAL SENF 16:24.7+6:12.0+60.71%62.22%0.15%0.24%
34244POTEMANS ROGERGELRODE - SPORTIVA GELRODE MAS M60M 16:27.1+6:14.4+61.11%62.07%-0.10%0.00%
35259WILLEMS LIAMTIELT-WINGE BENM 16:47.0+6:34.3+64.35%60.84%-2.11%-2.02%
36213VAN DER HEYDEN ISABELLEBETEKOM MINF 16:48.8+6:36.1+64.65%60.74%-2.30%-2.20%
37212VAN DER VEKEN SARAHBETEKOM MINF 16:59.8+6:47.1+66.44%60.08%-3.41%-3.31%
38227CONINX JORRENBEGIJNENDIJK MINM 17:06.9+6:54.2+67.60%59.67%-4.13%-4.03%
39228LIEKENS DAISYTREMELO SENF 17:23.8+7:11.1+70.36%58.70%-5.85%-5.74%
40233VAN VLASSELAER ROOSBETEKOM KADF 17:29.5+7:16.8+71.29%58.38%-6.42%-6.32%
41243CUMPS WILLYGELRODE - SPORTIVA GELRODE MAS M65M 17:31.1+7:18.4+71.55%58.29%-6.59%-6.48%
42231RENIERS MARCAARSCHOT MAS M50M 17:37.0+7:24.3+72.52%57.97%-7.18%-7.08%
43265JANSSENS JOKEBETEKOM SENF 17:54.8+7:42.1+75.42%57.01%-8.99%-8.88%
44201ADAMS LILYAARSCHOT BENF 18:01.1+7:48.4+76.45%56.67%-9.63%-9.52%
45256BIERNAUX SILKEBEGIJNENDIJK MINF 18:02.2+7:49.5+76.63%56.62%-9.74%-9.63%
46264JANSSENS MIEKERAMSEL SENF 18:03.8+7:51.1+76.89%56.53%-9.90%-9.80%
47248DECA KARELAARSCHOT MAS M65M 18:05.5+7:52.8+77.17%56.44%-10.07%-9.97%
48249DEMARSIN PAULRILLAAR MAS M65M 18:10.8+7:58.1+78.03%56.17%-10.61%-10.51%
49202SMEKENS GRIETAARSCHOT MAS F40F 18:28.3+8:15.6+80.89%55.28%-12.39%-12.28%
50223VERMAELEN FABIOLALANGDORP - KNOET MAS F50F 18:30.3+8:17.6+81.21%55.18%-12.59%-12.48%
51252CORBEELS DANNYHOLSBEEK MAS M45M 18:31.7+8:19.0+81.44%55.11%-12.73%-12.62%
52234DEMAEGHT JANLANGDORP MAS M60M 18:54.5+8:41.8+85.16%54.01%-15.04%-14.93%
53485x1 xM 18:57.0+8:44.3+85.57%53.89%-15.30%-15.19%
54241VAN LIER STEFANTREMELO MAS M60M 19:08.1+8:55.4+87.38%53.37%-16.42%-16.31%
55255VAN VLASSELAER PASCALWESTERLO SENM 19:25.6+9:12.9+90.24%52.57%-18.20%-18.08%
56261GLORIEUX ROBINBEGIJNENDIJK SENM 19:29.4+9:16.7+90.86%52.39%-18.58%-18.47%
57408x2 xM 19:36.2+9:23.5+91.97%52.09%-19.27%-19.16%
58203DANCKERS NATHALIEBETEKOM MAS F40F 19:41.6+9:28.9+92.85%51.85%-19.82%-19.70%
59232HOLEMANS PAULWEZEMAAL MAS M70M 20:07.1+9:54.4+97.01%50.76%-22.41%-22.29%
60253HOEBREGS ANNICKHOLSBEEK MAS F40F 20:14.2+10:01.5+98.17%50.46%-23.13%-23.01%
61263VAN EMELEN DORIENRILLAAR SENF 20:29.5+10:16.8+100.67%49.83%-24.68%-24.56%
62262BRUYNINCKX KATRIENAARSCHOT SENF 20:42.8+10:30.1+102.84%49.30%-26.03%-25.90%
63226JANSSENS RIKLUBBEEK MAS M85M 21:34.3+11:21.6+111.25%47.34%-31.25%-31.12%
64222FRANCIS CINDYBETEKOM MAS F35F 21:45.4+11:32.7+113.06%46.94%-32.37%-32.25%
65266CALDERS SANDRAHOUTVENNE MAS F40F 21:53.9+11:41.2+114.44%46.63%-33.24%-33.11%
66209ARTS-STEMPHER LENNIEEINDHOVEN MAS M65M 22:15.2+12:02.5+117.92%45.89%-35.40%-35.26%
67251VAN ROMPAEY LOUISAARSCHOT MAS M65M 23:18.1+13:05.4+128.19%43.82%-41.77%-41.64%